Tracking 30970 objects as of 3-Jul-2025
HD Live streaming from Space Station
objects crossing your sky now

OBJECT P

Track OBJECT P now!
10-day predictions


NORAD ID: 54695
Int'l Code: 2022-167P
Perigee: 491.8 km
Apogee: 500.5 km
Inclination: 97.7 °
Period: 94.4 minutes
Semi major axis: 6867 km
RCS: Unknown
Launch date: December 9, 2022
Source: People's Republic of China (PRC)
Launch site: Yellow Sea Launch Area, China (YSLA)
Your satellite tracking list
Your tracking list is empty




NASA's NSSDC Master Catalog

Two Line Element Set (TLE):
1 54695U 22167P   25183.92458328  .00006680  00000-0  26581-3 0  9992
2 54695  97.6562 336.8630 0006378 270.0438  90.0068 15.25597155141973
Source of the keplerian elements: AFSPC